"Pseudo-MPEC" for X82585

Created 2024 Sep 8 6:22:27 UT using Find_Orb

Click here for an explanation of pseudo-MPECs

 
 Astrometry: 
     X82585 * C2024 08 17.69759 22 15 19.72 +06 22 42.6    ~8I7M 18.9 RVNEOCPD29
     X82585   C2024 08 17.70803 22 15 20.33 +06 22 34.2    ~8RBb 19.5 RVNEOCPD29
     X82585   C2024 08 17.71847 22 15 20.99 +06 22 24.0    ~8RBbx19.9 RVNEOCPD29
     X82585  KC2024 08 27.86424 22 26 53.657+03 45 37.33   ~8RN7 18.8 GVNEOCP151
     X82585  KC2024 08 27.87039 22 26 53.993+03 45 30.56   ~8RN7 18.7 GVNEOCP151
     X82585  KC2024 08 27.88066 22 26 54.658+03 45 18.76   ~8RN7 19.2 GVNEOCP151
     X82585  KC2024 08 28.81007 22 27 58.70 +03 27 58.0    ~8SKM 19.5 VqNEOCP126
     X82585  KC2024 08 28.83002 22 27 59.97 +03 27 37.4    ~8SKM 19.5 VqNEOCP126

Station data:
(126) Monte Viseggi  (N44.133167 E9.790300)  Italy. 0.40-m f/5 reflector.
(151) Eschenberg Observatory, Winterthur  (N47.476028 E8.744000)  Switzerland.
     Observer M. Griesser. 0.40-m f/5.8 Hypergraph + CCD.
(D29) Purple Mountain Observatory, XuYi Station  (N32.734363 E118.463900)
   China.  Observers H. B. Zhao, B. Li, G. Zhaori, R. Q. Hong, L. F. Hu.
   Measurers H. B. Zhao, B. Li. H. Lu, G. Zhaori. 1.04-m f/1.8 Schmidt + CCD.

Orbital elements:  X82585
   Perihelion 2024 Aug 29.38539 +/- 0.298 TT =  9:14:57 (JD 2460551.88539)
Epoch 2024 Aug 28.0 TT = JDT 2460550.5   Earth MOID: 0.2946   Ma: 0.0327
M 359.58112732 +/- 0.08             (J2000 ecliptic)             AutoNEOCP
n   0.30234986 +/- 0.00814          Peri.  158.15836 +/- 0.31
a   2.19851546 +/- 0.0395           Node   178.74416 +/- 0.07
e   0.4089278 +/- 0.00832           Incl.    7.25433 +/- 0.12
P   3.25983                H 20.73  G  0.15   U  9.5
q 1.29948119 +/- 0.00504    Q 3.09754974 +/- 0.0739
7 of 8 observations 2024 Aug. 17-28; mean residual 0".42
Residuals in arcseconds: 
240817 D29  .03-  .41+    240827 151  .28+  .17+    240828 126  .05-  .95-    
240817 D29  .03+  .41-    240827 151  .38-  .17+    240828 126  .05+  .93+    
240817 D29( .84+  3.0-)   240827 151  .11+  .32-    

Ephemerides (geocentric):
Date (UTC) HH   RA             Dec           delta  r     elong  mag " sig PA
---- --------  ------------   ------------  ------ ------ -----  --- --------
2024 09 08 06  22 40 06.205   -00 06 49.73  .29820 1.3030 171.2 19.2 15.3  62
2024 09 08 07  22 40 09.192   -00 07 43.62  .29824 1.3030 171.2 19.2 15.3  62
2024 09 08 08  22 40 12.179   -00 08 37.50  .29828 1.3030 171.2 19.2 15.4  62
2024 09 08 09  22 40 15.167   -00 09 31.39  .29833 1.3030 171.2 19.2 15.5  62
2024 09 08 10  22 40 18.155   -00 10 25.28  .29837 1.3031 171.2 19.2 15.5  62
2024 09 08 11  22 40 21.145   -00 11 19.18  .29841 1.3031 171.2 19.2 15.6  62
2024 09 08 12  22 40 24.135   -00 12 13.07  .29845 1.3031 171.2 19.2 15.7  62
2024 09 08 13  22 40 27.126   -00 13 06.97  .29849 1.3032 171.2 19.2 15.7  63
2024 09 08 14  22 40 30.118   -00 14 00.87  .29854 1.3032 171.2 19.2 15.8  63
2024 09 08 15  22 40 33.110   -00 14 54.76  .29858 1.3032 171.2 19.2 15.8  63
2024 09 08 16  22 40 36.104   -00 15 48.66  .29862 1.3033 171.2 19.2 15.9  63
2024 09 08 17  22 40 39.098   -00 16 42.57  .29866 1.3033 171.2 19.2 16.0  63
2024 09 08 18  22 40 42.093   -00 17 36.47  .29871 1.3033 171.2 19.2 16.0  63
2024 09 08 19  22 40 45.089   -00 18 30.37  .29875 1.3033 171.2 19.2 16.1  63
2024 09 08 20  22 40 48.085   -00 19 24.27  .29879 1.3034 171.2 19.2 16.2  63
2024 09 08 21  22 40 51.083   -00 20 18.17  .29884 1.3034 171.2 19.2 16.2  63
2024 09 08 22  22 40 54.081   -00 21 12.08  .29888 1.3034 171.2 19.2 16.3  63
2024 09 08 23  22 40 57.080   -00 22 05.98  .29893 1.3035 171.2 19.2 16.3  63
2024 09 09 00  22 41 00.080   -00 22 59.88  .29897 1.3035 171.2 19.2 16.4  63
2024 09 09 01  22 41 03.080   -00 23 53.78  .29902 1.3035 171.2 19.2 16.5  63
2024 09 09 02  22 41 06.081   -00 24 47.68  .29906 1.3036 171.2 19.2 16.5  63
2024 09 09 03  22 41 09.084   -00 25 41.58  .29911 1.3036 171.2 19.2 16.6  64
2024 09 09 04  22 41 12.087   -00 26 35.48  .29915 1.3036 171.2 19.2 16.7  64
2024 09 09 05  22 41 15.090   -00 27 29.38  .29920 1.3037 171.2 19.2 16.7  64
2024 09 09 06  22 41 18.095   -00 28 23.27  .29925 1.3037 171.2 19.2 16.8  64
2024 09 09 07  22 41 21.100   -00 29 17.16  .29929 1.3037 171.2 19.2 16.8  64
2024 09 09 08  22 41 24.106   -00 30 11.06  .29934 1.3038 171.2 19.2 16.9  64
2024 09 09 09  22 41 27.113   -00 31 04.95  .29939 1.3038 171.1 19.2 17.0  64
2024 09 09 10  22 41 30.121   -00 31 58.83  .29943 1.3038 171.1 19.2 17.0  64
2024 09 09 11  22 41 33.130   -00 32 52.72  .29948 1.3039 171.1 19.2 17.1  64
2024 09 09 12  22 41 36.139   -00 33 46.60  .29953 1.3039 171.1 19.2 17.2  64
2024 09 09 13  22 41 39.150   -00 34 40.48  .29958 1.3039 171.1 19.2 17.2  64
2024 09 09 14  22 41 42.161   -00 35 34.35  .29962 1.3040 171.1 19.2 17.3  64
2024 09 09 15  22 41 45.173   -00 36 28.22  .29967 1.3040 171.1 19.2 17.3  64
2024 09 09 16  22 41 48.185   -00 37 22.09  .29972 1.3040 171.1 19.2 17.4  64
2024 09 09 17  22 41 51.199   -00 38 15.96  .29977 1.3041 171.1 19.2 17.5  65
2024 09 09 18  22 41 54.213   -00 39 09.82  .29982 1.3041 171.1 19.2 17.5  65
2024 09 09 19  22 41 57.228   -00 40 03.67  .29987 1.3041 171.1 19.2 17.6  65
2024 09 09 20  22 42 00.244   -00 40 57.53  .29992 1.3042 171.1 19.2 17.7  65
2024 09 09 21  22 42 03.261   -00 41 51.38  .29997 1.3042 171.1 19.2 17.7  65
2024 09 09 22  22 42 06.279   -00 42 45.22  .30002 1.3042 171.1 19.2 17.8  65
2024 09 09 23  22 42 09.297   -00 43 39.06  .30007 1.3043 171.1 19.2 17.8  65
2024 09 10 00  22 42 12.317   -00 44 32.89  .30012 1.3043 171.1 19.2 17.9  65
2024 09 10 01  22 42 15.337   -00 45 26.72  .30017 1.3043 171.0 19.2 18.0  65
2024 09 10 02  22 42 18.358   -00 46 20.54  .30022 1.3044 171.0 19.2 18.0  65
2024 09 10 03  22 42 21.380   -00 47 14.36  .30027 1.3044 171.0 19.2 18.1  65
2024 09 10 04  22 42 24.402   -00 48 08.17  .30032 1.3044 171.0 19.2 18.2  65
2024 09 10 05  22 42 27.426   -00 49 01.98  .30037 1.3045 171.0 19.2 18.2  65